Wind_Speed
10 10 11 12 13 14 16 18 20 21 22 23 23 23 23 23 23 24 23 23 23 22 21 20 19 18 18 18 17 17 16 16 15 15 14 14 13 12 12 12 12 12
9 9 9 10 10 11 12 13 16 18 19 20 21 22 22 22 22 22 23 23 23 23 22 21 21 20 19 19 18 18 18 17 17 16 16 15 14 13 12 12 12 12
8 8 8 8 8 9 9 10 12 14 15 17 18 19 20 20 21 21 21 21 21 21 22 21 21 21 20 20 19 19 19 18 18 17 17 16 15 14 13 13 12 12
7 7 6 6 6 6 7 7 8 10 12 13 14 15 16 17 18 18 18 19 19 19 19 20 20 20 20 20 19 19 19 18 18 18 18 17 16 15 15 14 14 13
5 6 5 5 4 4 5 5 6 7 8 10 11 11 12 13 14 15 15 16 16 16 16 17 17 18 18 18 18 18 18 18 17 17 17 17 16 16 16 15 15 15
5 5 6 5 3 3 3 3 4 4 4 6 7 7 8 8 9 10 11 12 13 13 14 14 14 15 15 16 16 16 16 16 16 16 16 16 15 15 15 15 15 15
5 5 6 6 5 3 3 2 2 2 1 1 2 3 4 4 5 6 7 8 9 10 11 11 12 12 12 12 13 13 13 14 14 14 14 14 14 14 14 14 14 15
7 6 6 6 6 5 4 3 3 3 3 2 2 2 2 2 2 2 3 4 5 6 7 8 9 9 9 9 9 9 10 10 10 10 11 11 11 12 12 13 13 14
9 9 9 8 7 7 6 5 4 5 5 5 5 4 3 3 2 1 0 1 2 3 4 5 6 6 6 6 6 6 6 6 6 7 7 8 9 9 10 11 12 12
13 12 12 11 9 9 8 7 6 6 7 6 6 6 5 5 4 3 2 1 1 1 1 2 3 4 4 4 3 2 2 2 3 3 4 5 6 7 8 9 10 11
17 15 14 13 12 11 10 9 9 9 8 7 7 7 7 6 6 4 3 2 2 2 2 2 2 2 2 2 2 1 0 1 1 1 2 3 5 6 7 8 9 9
20 19 17 16 14 13 13 11 11 11 10 9 9 8 8 7 7 5 5 4 3 4 4 4 3 3 2 2 1 0 1 2 3 3 3 3 4 5 7 7 8 8
23 22 21 19 18 17 16 14 13 13 13 12 11 10 10 9 9 7 6 5 5 5 6 6 6 6 5 4 3 2 2 3 4 5 6 5 5 5 5 6 7 8
27 25 24 22 21 20 20 19 17 16 16 16 15 14 13 12 11 10 8 6 6 6 7 7 7 8 8 8 7 6 4 3 3 4 5 5 5 5 4 5 6 8
30 28 26 24 24 24 23 23 22 20 19 20 19 19 18 16 14 14 12 9 7 7 8 8 9 9 9 9 8 7 6 5 5 5 4 4 4 5 4 4 5 7
31 30 28 27 27 28 27 27 26 24 23 23 23 23 22 21 19 17 15 13 12 11 11 11 11 11 10 10 8 7 7 7 6 6 7 6 5 5 5 4 4 6
31 31 30 29 31 32 31 31 31 29 28 27 27 27 26 25 24 21 19 16 16 16 15 14 14 13 12 11 10 8 7 7 7 7 8 8 8 7 7 7 5 5
34 33 32 33 34 35 35 35 35 34 32 31 31 30 29 29 28 27 23 21 20 19 19 19 18 15 14 14 13 12 10 9 8 8 8 9 9 8 8 9 9 7
38 36 35 36 37 37 36 37 37 36 35 34 33 33 32 32 32 30 27 25 23 23 23 23 20 18 17 17 16 16 15 14 13 11 9 10 10 10 10 9 10 10
40 39 38 38 38 37 37 37 37 38 38 36 35 35 35 35 34 32 30 28 27 27 27 26 23 21 21 19 19 19 19 19 19 16 12 10 11 12 13 12 11 11
43 41 41 40 39 37 37 36 36 37 38 36 37 39 39 36 35 34 32 31 30 30 31 29 27 26 25 24 23 22 22 22 22 21 18 15 13 12 13 15 14 13
46 44 45 44 41 38 36 35 35 37 38 36 38 40 39 36 37 37 35 34 33 33 33 31 30 30 30 29 28 27 26 25 24 25 23 21 17 15 13 15 16 16
49 48 48 47 43 40 39 37 37 39 40 39 40 40 38 36 37 38 36 35 35 36 35 34 33 32 33 33 33 31 30 28 27 27 27 25 22 19 18 17 18 18
52 51 51 49 45 44 44 42 40 39 39 41 42 43 41 40 41 41 39 37 37 38 38 37 35 35 36 36 36 35 34 33 31 30 30 28 25 23 23 22 21 22
53 53 53 50 47 47 46 43 42 41 42 44 45 46 45 44 44 44 43 41 41 41 41 40 38 38 38 39 39 39 37 37 36 34 34 32 28 26 26 26 25 26
56 56 55 52 51 50 48 45 47 49 50 51 50 49 50 49 48 47 45 44 45 45 45 44 43 42 42 42 42 42 41 40 39 38 38 37 33 30 30 30 29 30
Wind_Direction
56 52 54 55 54 55 58 62 64 63 63 65 66 67 68 69 69 70 70 71 71 72 73 74 74 75 77 77 78 77 77 76 75 74 75 75 74 73 68 64 62 59
53 48 48 51 54 55 55 59 65 66 65 65 65 67 68 69 70 70 70 70 71 72 73 73 74 75 76 77 78 78 79 78 78 76 75 74 73 71 68 65 62 60
54 48 44 44 47 51 53 55 61 67 68 67 67 66 68 69 70 70 71 71 71 72 72 73 73 74 75 76 77 78 79 79 80 79 78 77 74 71 69 67 65 62
41 43 42 41 41 41 47 50 56 65 69 69 69 68 68 70 71 71 72 72 72 72 73 73 73 73 73 74 75 76 77 77 79 80 79 78 76 73 70 69 66 63
16 20 20 28 33 30 34 42 47 58 67 69 70 70 69 70 73 74 74 74 74 74 74 74 74 73 72 71 71 71 72 72 73 74 76 76 75 74 71 69 66 63
345 351 349 351 1 7 15 26 32 41 58 67 71 74 73 72 74 77 79 79 79 77 76 75 74 74 73 71 69 68 67 67 67 67 67 67 68 69 68 66 63 60
310 320 323 326 328 334 343 349 350 351 11 73 84 86 85 82 77 76 81 85 85 84 81 79 76 74 73 71 69 68 66 65 64 62 61 60 59 59 59 58 56 54
280 287 291 296 301 304 313 315 301 288 275 243 210 175 144 126 103 83 82 88 90 91 90 87 83 79 76 72 69 68 67 65 62 59 57 56 53 50 49 48 47 46
258 265 268 271 275 280 285 291 284 273 266 253 235 220 215 215 209 221 249 90 98 100 101 102 96 92 87 82 75 71 69 66 62 56 51 48 44 41 39 37 36 35
247 253 257 258 262 268 273 274 274 271 267 259 247 235 232 235 233 234 245 258 240 183 141 132 123 115 109 104 95 84 74 72 62 53 46 38 33 31 28 27 26 24
246 252 255 256 258 263 268 268 269 272 270 259 252 247 240 239 243 245 244 247 252 256 250 223 183 151 140 132 125 113 340 309 320 352 16 22 24 22 21 19 16 15
250 254 256 256 256 257 258 260 265 271 268 254 248 251 249 243 241 244 247 250 255 260 263 259 251 237 217 196 185 249 318 322 322 324 330 347 5 11 13 12 7 4
249 253 255 257 258 257 255 253 256 262 262 253 245 246 250 250 243 238 239 244 253 257 261 263 263 260 258 253 250 255 286 322 331 333 333 333 340 351 357 359 355 351
243 247 250 254 259 260 259 258 257 257 256 255 250 246 245 247 247 244 240 238 248 255 257 262 264 266 266 263 261 257 252 262 289 308 319 322 320 320 325 336 344 344
241 245 247 250 254 257 257 258 257 256 256 256 255 251 247 244 245 250 249 245 248 256 258 261 264 268 274 276 279 280 271 258 253 256 262 274 287 291 293 311 332 344
240 242 244 248 252 253 253 253 252 254 259 261 257 252 250 247 246 249 253 252 253 257 261 261 261 265 277 284 288 296 295 286 279 276 266 256 259 276 288 302 325 341
239 238 240 244 249 250 251 250 250 254 261 264 261 254 250 249 248 247 248 248 249 252 256 257 257 260 270 276 276 280 292 300 304 302 293 278 266 267 279 290 305 331
241 239 241 245 247 247 249 250 251 255 260 264 261 256 251 249 249 249 248 246 245 247 250 252 253 256 263 268 269 269 274 285 294 299 298 292 282 272 275 284 293 305
244 243 246 249 249 248 249 250 252 255 259 260 259 255 252 249 248 248 250 249 250 252 253 253 253 253 256 262 267 268 269 274 281 285 288 291 291 285 283 289 294 297
247 246 248 252 252 251 250 249 250 253 256 257 254 251 251 251 248 248 250 251 254 256 258 259 258 254 251 253 259 265 266 268 272 275 276 278 283 285 286 289 296 300
247 249 250 251 251 249 247 246 248 252 255 254 249 247 249 251 250 249 250 251 253 254 256 260 262 259 254 251 252 256 258 261 265 270 272 271 270 273 279 282 286 293
248 250 251 250 247 244 242 243 245 250 253 250 245 246 249 249 249 249 249 250 252 254 255 257 258 259 257 255 255 255 255 256 260 265 268 270 268 266 267 272 275 280
249 250 249 246 242 240 240 241 243 248 251 248 244 244 245 245 246 247 247 248 251 254 256 256 256 256 256 255 257 258 258 258 258 261 264 266 266 265 265 266 267 269
248 247 244 239 237 238 239 240 240 243 246 244 242 242 243 243 245 247 247 247 250 253 255 255 255 255 255 253 254 256 259 260 261 262 264 264 263 263 263 264 265 265
243 243 239 234 234 237 237 235 234 235 238 242 243 242 242 243 244 246 247 248 248 249 251 252 252 253 254 253 251 252 254 258 260 262 264 264 264 264 264 264 263 263
241 239 235 232 231 232 230 227 229 233 237 243 244 242 241 242 243 245 246 247 247 247 247 249 251 251 252 251 250 249 250 252 256 258 261 262 262 263 264 264 263 264
Height
11021 11021 11021 11020 11020 11020 11019 11018 11017 11017 11016 11015 11014 11013 11013 11012 11012 11011 11010 11010 11009 11009 11008 11008 11008 11007 11007 11006 11006 11006 11006 11005 11005 11005 11004 11004 11004 11004 11004 11003 11003 11002
11022 11022 11021 11021 11021 11021 11021 11020 11019 11019 11018 11017 11017 11016 11015 11015 11014 11013 11013 11012 11012 11011 11011 11010 11010 11009 11009 11008 11008 11008 11007 11007 11006 11006 11006 11006 11005 11005 11005 11004 11004 11003
11023 11023 11022 11022 11022 11022 11022 11022 11021 11020 11020 11019 11019 11018 11018 11017 11016 11016 11015 11015 11014 11014 11013 11013 11012 11012 11011 11011 11010 11010 11009 11008 11008 11007 11007 11007 11007 11007 11006 11006 11005 11004
11024 11024 11023 11023 11023 11023 11023 11023 11022 11022 11021 11021 11020 11020 11020 11019 11018 11018 11017 11017 11016 11016 11015 11015 11014 11014 11013 11013 11012 11012 11011 11010 11010 11009 11008 11008 11008 11008 11007 11007 11006 11006
11024 11024 11024 11024 11024 11024 11024 11024 11023 11023 11022 11021 11021 11021 11021 11020 11020 11019 11019 11018 11018 11017 11017 11016 11016 11015 11015 11014 11014 11013 11013 11012 11012 11011 11010 11010 11009 11009 11008 11008 11007 11007
11024 11024 11024 11024 11024 11024 11024 11024 11024 11023 11022 11022 11021 11021 11021 11021 11021 11021 11020 11019 11019 11018 11018 11017 11017 11016 11016 11016 11015 11015 11014 11014 11013 11013 11012 11011 11011 11010 11009 11009 11008 11008
11023 11024 11024 11024 11024 11024 11024 11024 11024 11024 11023 11022 11021 11021 11021 11021 11021 11021 11021 11020 11020 11019 11019 11018 11018 11017 11017 11017 11016 11016 11016 11015 11015 11014 11013 11013 11012 11011 11011 11010 11009 11009
11022 11023 11023 11023 11024 11024 11024 11024 11023 11023 11023 11022 11021 11021 11021 11021 11021 11021 11021 11021 11020 11020 11020 11019 11019 11018 11018 11018 11017 11017 11016 11016 11016 11015 11014 11014 11013 11012 11012 11011 11010 11010
11021 11021 11022 11022 11023 11023 11023 11023 11023 11023 11022 11022 11022 11021 11021 11021 11021 11021 11021 11021 11021 11020 11020 11019 11019 11019 11019 11018 11018 11018 11017 11017 11016 11016 11015 11014 11014 11013 11012 11012 11011 11011
11019 11019 11020 11021 11022 11022 11022 11022 11022 11022 11022 11022 11022 11021 11021 11021 11021 11021 11021 11020 11020 11020 11019 11019 11019 11019 11018 11018 11018 11018 11017 11017 11016 11016 11015 11015 11014 11014 11013 11013 11012 11012
11017 11017 11018 11019 11020 11021 11021 11022 11022 11022 11022 11022 11022 11021 11021 11021 11020 11020 11020 11020 11020 11020 11019 11019 11018 11018 11018 11018 11017 11017 11017 11016 11016 11015 11015 11014 11014 11014 11013 11013 11013 11012
11014 11015 11016 11016 11018 11019 11019 11020 11021 11021 11021 11021 11021 11021 11021 11020 11020 11020 11020 11020 11020 11019 11019 11018 11018 11018 11017 11017 11017 11017 11016 11016 11016 11015 11015 11015 11014 11014 11013 11013 11013 11012
11011 11013 11014 11014 11015 11016 11017 11018 11018 11019 11020 11020 11020 11020 11020 11020 11020 11019 11019 11019 11019 11019 11018 11018 11018 11017 11017 11017 11016 11016 11016 11016 11016 11016 11015 11015 11015 11014 11014 11013 11013 11012
11008 11009 11011 11012 11013 11014 11015 11015 11016 11016 11017 11017 11018 11019 11019 11019 11019 11018 11018 11018 11018 11018 11017 11017 11017 11016 11016 11016 11015 11015 11015 11015 11015 11015 11015 11015 11015 11015 11014 11014 11013 11012
11006 11007 11008 11009 11010 11011 11012 11013 11013 11014 11014 11014 11015 11016 11017 11017 11017 11017 11017 11017 11016 11016 11016 11016 11016 11015 11015 11015 11015 11014 11014 11014 11014 11014 11014 11014 11014 11014 11014 11014 11013 11012
11004 11005 11006 11006 11007 11007 11009 11010 11010 11011 11011 11011 11012 11013 11014 11014 11014 11014 11015 11015 11015 11015 11014 11014 11014 11014 11014 11014 11014 11014 11014 11013 11013 11013 11013 11013 11013 11013 11013 11013 11013 11012
11000 11002 11003 11003 11003 11003 11004 11006 11006 11007 11008 11009 11009 11010 11010 11011 11011 11012 11012 11012 11012 11013 11013 11012 11012 11012 11013 11013 11013 11013 11013 11013 11013 11012 11012 11012 11012 11012 11012 11012 11012 11012
10995 10997 10999 11000 11000 11000 11001 11002 11003 11004 11005 11005 11006 11006 11007 11008 11008 11008 11009 11009 11009 11010 11010 11010 11010 11011 11011 11011 11011 11012 11012 11012 11012 11012 11012 11011 11011 11011 11011 11011 11011 11011
10990 10992 10994 10995 10997 10998 10999 11000 11000 11000 11001 11001 11002 11003 11004 11004 11004 11005 11006 11006 11007 11007 11007 11007 11008 11008 11009 11009 11009 11010 11010 11010 11010 11010 11010 11010 11010 11010 11010 11010 11010 11010
10986 10988 10989 10991 10993 10995 10995 10996 10996 10995 10995 10997 10998 10999 10999 11000 11001 11002 11003 11003 11004 11004 11004 11004 11006 11006 11006 11006 11007 11007 11008 11008 11008 11009 11009 11009 11008 11009 11009 11009 11009 11009
10982 10983 10984 10986 10988 10990 10991 10991 10991 10990 10991 10992 10993 10993 10996 10998 10998 10999 11000 11000 11001 11001 11000 11002 11003 11003 11003 11003 11003 11004 11004 11005 11005 11006 11006 11006 11006 11007 11007 11007 11007 11007
10977 10978 10979 10980 10982 10985 10986 10986 10986 10986 10986 10988 10988 10989 10992 10995 10995 10995 10996 10997 10997 10997 10997 10998 10999 11000 11000 11000 11000 11000 11000 11001 11002 11002 11003 11004 11004 11004 11005 11005 11005 11005
10972 10974 10974 10974 10976 10978 10980 10982 10982 10982 10982 10983 10984 10984 10987 10989 10989 10990 10991 10992 10993 10992 10993 10994 10994 10995 10996 10996 10996 10996 10997 10997 10998 10999 11000 11000 11001 11002 11002 11002 11003 11003
10966 10968 10967 10968 10970 10972 10974 10976 10976 10977 10978 10978 10979 10979 10981 10983 10984 10984 10986 10987 10988 10987 10988 10989 10990 10990 10991 10992 10992 10993 10993 10993 10994 10995 10996 10997 10998 10998 10999 10999 11000 11000
10957 10959 10960 10962 10965 10966 10968 10970 10971 10972 10973 10973 10973 10974 10975 10976 10977 10978 10981 10982 10981 10981 10983 10984 10985 10985 10986 10987 10988 10989 10989 10990 10990 10992 10993 10993 10994 10996 10996 10996 10996 10996
10950 10952 10954 10956 10958 10959 10962 10964 10964 10964 10965 10966 10966 10968 10968 10969 10970 10972 10975 10975 10974 10975 10977 10978 10979 10980 10981 10982 10983 10984 10985 10985 10986 10987 10988 10989 10991 10993 10993 10993 10993 10992